Fort Rucker / Ozark, AL

11:47 PM CDT on March 29, 2017 (GMT -0500)
Fort Rucker / Ozark

Weather History for KLOR - May, 2013

Change the Weather History Date:

Saturday, May 4, 2013

  Actual Average (KOZR) Record (KOZR)
Temperature  
Mean Temperature 57 °F -  
Max Temperature 66 °F 79 °F 93 °F (2002)
Min Temperature 45 °F 57 °F 42 °F (2004)
Degree Days  
Heating Degree Days 8    
Growing Degree Days 7 (Base 50)    
Moisture  
Dew Point 50 °F    
Average Humidity 87    
Maximum Humidity 100    
Minimum Humidity 48    
Precipitation  
Precipitation 0.92 in - - ()
Sea Level Pressure  
Sea Level Pressure 29.86 in    
Wind  
Wind Speed 7 mph (NNW)    
Max Wind Speed 17 mph    
Max Gust Speed 26 mph    
Visibility 6 miles    
Events Rain    
Averages and records for this station are not official NWS values.
T = Trace of Precipitation, MM = Missing Value Source: NWS Daily Summary

Daily Weather History Graph

Daily Weather History Graph

Search for Another Location

Airport or City:

Trip Planner

Search our weather history database for the weather conditions in past years. The results will help you decide how hot, cold, wet, or windy it might be!

Date:

Astronomy

May. 04, 2013 Rise Set
Actual Time 5:55 AM CDT 7:24 PM CDT
Civil Twilight 5:29 AM CDT 7:50 PM CDT
Nautical Twilight 4:58 AM CDT 8:21 PM CDT
Astronomical Twilight 4:25 AM CDT 8:54 PM CDT
Moon 2:33 AM CDT (5/4) 2:40 PM CDT (5/4)
Length of Visible Light 14h 21m
Length of Day
13h 29m
Waning Crescent, 27% of the Moon is Illuminated
May 4
Waning Crescent
May 9
New
May 17
First Quarter
May 24
Full
May 31
Last Quarter

Hourly Weather History & Observations

Time (CDT) Temp. Dew Point Humidity Pressure Visibility Wind Dir Wind Speed Gust Speed Precip Events Conditions
12:27 AM 64.4 °F 59.0 °F 83% 29.85 in 10.0 mi Calm Calm - N/A   Overcast
12:41 AM 62.6 °F 60.8 °F 94% 29.84 in 9.0 mi Calm Calm - 0.01 in Rain Light Rain
12:53 AM 63.0 °F 60.1 °F 90% 29.82 in 9.0 mi Calm Calm - 0.01 in Rain Light Rain
1:53 AM 62.1 °F 60.1 °F 93% 29.80 in 10.0 mi East 4.6 mph - 0.01 in Rain Light Rain
2:21 AM 62.6 °F 60.8 °F 94% 29.81 in 10.0 mi NW 9.2 mph - 0.00 in   Overcast
2:53 AM 63.0 °F 60.1 °F 90% 29.81 in 10.0 mi NNW 4.6 mph - 0.00 in Rain Light Rain
3:09 AM 62.6 °F 60.8 °F 94% 29.81 in 4.0 mi NNW 4.6 mph - 0.02 in Rain Rain
3:26 AM 62.6 °F 60.8 °F 94% 29.82 in 2.5 mi WNW 8.1 mph - 0.10 in Rain Rain
3:43 AM 57.2 °F 55.4 °F 94% 29.81 in 3.0 mi WNW 11.5 mph - 0.17 in Rain Heavy Rain
3:53 AM 55.9 °F 54.0 °F 93% 29.81 in 3.0 mi WNW 11.5 mph - 0.21 in Rain Rain
4:07 AM 53.6 °F 51.8 °F 94% 29.83 in 4.0 mi WNW 12.7 mph - 0.04 in Rain Rain
4:23 AM 51.8 °F 51.8 °F 100% 29.82 in 3.0 mi NW 8.1 mph - 0.09 in Rain Rain
4:44 AM 51.8 °F 48.2 °F 88% 29.83 in 6.0 mi NW 9.2 mph - 0.11 in Rain Light Rain
4:51 AM 51.8 °F 50.0 °F 94% 29.84 in 8.0 mi WNW 6.9 mph - 0.12 in Rain Light Rain
4:53 AM 51.1 °F 50.0 °F 96% 29.83 in 8.0 mi WNW 9.2 mph - 0.12 in Rain Light Rain
5:24 AM 50.0 °F 48.2 °F 94% 29.83 in 4.0 mi North 6.9 mph - 0.05 in Rain Rain
5:34 AM 50.0 °F 48.2 °F 94% 29.84 in 3.0 mi NNW 5.8 mph - 0.07 in Rain Rain
5:53 AM 50.0 °F 48.0 °F 93% 29.84 in 4.0 mi North 6.9 mph - 0.11 in Rain Light Rain
6:13 AM 50.0 °F 48.2 °F 94% 29.85 in 2.5 mi NNW 4.6 mph - 0.04 in Rain Light Rain
6:20 AM 50.0 °F 48.2 °F 94% 29.85 in 4.0 mi NNW 5.8 mph - 0.04 in Rain Light Rain
6:30 AM 50.0 °F 48.2 °F 94% 29.86 in 2.5 mi NW 6.9 mph - 0.06 in Rain Light Rain
6:40 AM 50.0 °F 48.2 °F 94% 29.87 in 2.0 mi NW 5.8 mph - 0.08 in Rain Rain
6:48 AM 50.0 °F 48.2 °F 94% 29.86 in 2.5 mi NNW 5.8 mph - 0.08 in Rain Light Rain
6:53 AM 50.0 °F 48.0 °F 93% 29.86 in 3.0 mi North 8.1 mph - 0.08 in Rain Light Rain
7:04 AM 50.0 °F 48.2 °F 94% 29.86 in 6.0 mi NNW 8.1 mph - 0.01 in Rain Light Rain
7:15 AM 50.0 °F 48.2 °F 94% 29.86 in 8.0 mi NNW 6.9 mph - 0.01 in   Overcast
7:53 AM 48.9 °F 46.9 °F 93% 29.87 in 1.8 mi North 9.2 mph - 0.03 in Rain Rain
8:14 AM 48.2 °F 46.4 °F 93% 29.87 in 2.0 mi NNW 9.2 mph - 0.04 in Rain Light Rain
8:49 AM 48.2 °F 46.4 °F 93% 29.88 in 3.0 mi NNW 9.2 mph 20.7 mph 0.08 in Rain Light Rain
8:53 AM 48.9 °F 46.0 °F 90% 29.88 in 2.5 mi NNW 8.1 mph 20.7 mph 0.09 in Rain Light Rain
8:56 AM 48.2 °F 46.4 °F 93% 29.88 in 1.8 mi NNW 9.2 mph - 0.01 in Rain Rain
9:07 AM 48.2 °F 46.4 °F 93% 29.88 in 1.8 mi NNW 8.1 mph 19.6 mph 0.04 in Rain Rain
9:25 AM 48.2 °F 46.4 °F 93% 29.89 in 1.5 mi NNW 5.8 mph - 0.11 in Rain Rain
9:40 AM 50.0 °F 48.2 °F 94% 29.88 in 2.5 mi NNW 8.1 mph - 0.13 in Rain Rain
9:53 AM 50.0 °F 48.0 °F 93% 29.88 in 3.0 mi NNW 9.2 mph - 0.14 in Rain Light Rain
10:03 AM 50.0 °F 48.2 °F 94% 29.89 in 5.0 mi NNW 6.9 mph - 0.01 in Rain Light Rain
10:20 AM 50.0 °F 48.2 °F 94% 29.89 in 2.0 mi NNW 12.7 mph 17.3 mph 0.03 in Rain Rain
10:37 AM 50.0 °F 48.2 °F 94% 29.90 in 1.5 mi NNW 9.2 mph - 0.08 in Rain Heavy Rain
10:47 AM 51.8 °F 48.2 °F 88% 29.90 in 2.5 mi NW 6.9 mph 18.4 mph 0.09 in Rain Light Rain
10:53 AM 51.1 °F 48.9 °F 92% 29.90 in 3.0 mi NW 10.4 mph - 0.10 in Rain Rain
11:02 AM 51.8 °F 48.2 °F 88% 29.89 in 3.0 mi NW 6.9 mph - 0.01 in Rain Light Rain
11:09 AM 51.8 °F 48.2 °F 88% 29.90 in 4.0 mi NNW 12.7 mph 17.3 mph 0.01 in Rain Light Rain
11:16 AM 51.8 °F 48.2 °F 88% 29.90 in 4.0 mi NNW 9.2 mph 17.3 mph 0.02 in Rain Light Rain
11:23 AM 51.8 °F 48.2 °F 88% 29.89 in 4.0 mi NNW 9.2 mph - 0.02 in Rain Light Rain
11:53 AM 53.1 °F 50.0 °F 89% 29.88 in 7.0 mi NNW 13.8 mph 23.0 mph 0.02 in Rain Light Rain
12:04 PM 53.6 °F 50.0 °F 88% 29.89 in 10.0 mi NNW 13.8 mph 24.2 mph 0.00 in   Overcast
12:53 PM 55.0 °F 50.0 °F 83% 29.88 in 10.0 mi NNW 11.5 mph 19.6 mph 0.00 in   Overcast
1:14 PM 55.4 °F 48.2 °F 77% 29.88 in 10.0 mi NNW 17.3 mph 23.0 mph N/A   Overcast
1:21 PM 57.2 °F 50.0 °F 77% 29.88 in 10.0 mi NNW 15.0 mph 23.0 mph N/A   Overcast
1:28 PM 57.2 °F 48.2 °F 72% 29.88 in 10.0 mi NNW 15.0 mph 26.5 mph N/A   Overcast
1:53 PM 61.0 °F 48.9 °F 64% 29.87 in 10.0 mi North 15.0 mph 23.0 mph N/A   Scattered Clouds
2:53 PM 64.0 °F 48.9 °F 58% 29.85 in 10.0 mi North 11.5 mph 16.1 mph N/A   Partly Cloudy
3:53 PM 66.0 °F 48.0 °F 52% 29.84 in 10.0 mi NW 12.7 mph - N/A   Clear
4:53 PM 66.0 °F 46.0 °F 48% 29.84 in 10.0 mi North 10.4 mph - N/A   Partly Cloudy
5:53 PM 64.0 °F 45.0 °F 50% 29.84 in 10.0 mi North 10.4 mph - N/A   Clear
6:53 PM 60.1 °F 46.9 °F 62% 29.85 in 10.0 mi NNE 3.5 mph - N/A   Clear
7:53 PM 53.1 °F 46.9 °F 80% 29.87 in 10.0 mi North 4.6 mph - N/A   Clear
8:53 PM 50.0 °F 45.0 °F 83% 29.89 in 10.0 mi North 4.6 mph - N/A   Clear
9:53 PM 50.0 °F 45.0 °F 83% 29.90 in 10.0 mi Calm Calm - N/A   Clear
10:53 PM 48.0 °F 44.1 °F 86% 29.91 in 10.0 mi WNW 3.5 mph - N/A   Clear
11:53 PM 45.0 °F 43.0 °F 93% 29.89 in 10.0 mi Calm Calm - N/A   Clear